Date String (YYYY-MM-DD hh:mm:ss) UTC,Instrument flags,Ambient pressure (hPa),Sample flow (lpm),Bypass flow (lpm),Sample temperature (°C),Ambient temperature (°C),ASC tube jacket temperature (°C),LED temperature (°C),Box temperature (°C),Sample RH (%),Span deviation,Mass concentration (μg/m³),Mass concentration (μg/m³),Mass concentration (μg/m³)
DateTimeUTC,F1_M11,P_M11,Q1_M11,Q2_M11,T1_M11,T2_M11,T3_M11,T4_M11,T5_M11,U1_M11,ZSPAN_M11,X0_M11,X2_M11,X1_M11
2023-02-20 00:00:00,,0816.7,5.00,0.00,22.1,21.3,00.0,30.9,23.9,08.5,0000.0,0006.03,0002.05,0001.15
2023-02-20 00:01:00,,0817.1,5.01,0.00,22.1,21.0,00.0,30.9,23.9,08.4,0000.0,0004.86,0002.08,0001.16
2023-02-20 00:02:00,,0816.8,5.01,0.00,22.1,20.8,00.0,30.9,23.9,08.5,0000.0,0005.20,0002.11,0001.18
2023-02-20 00:03:00,,0817.0,5.01,0.00,22.1,20.7,00.0,30.9,23.9,08.7,0000.0,0005.40,0002.10,0001.17
2023-02-20 00:04:00,,0816.8,4.99,0.00,22.1,20.6,00.0,31.0,23.9,08.9,0000.0,0005.44,0002.10,0001.19
2023-02-20 00:05:00,,0816.9,5.00,0.00,22.1,20.6,00.0,31.0,23.8,08.8,0000.0,0005.30,0002.05,0001.18
2023-02-20 00:06:00,,0816.8,5.01,0.00,22.1,20.5,00.0,31.0,23.8,08.9,0000.0,0005.20,0002.05,0001.18
2023-02-20 00:07:00,,0817.0,4.99,0.00,22.0,20.5,00.0,31.0,23.8,08.8,0000.0,0004.98,0002.03,0001.18
2023-02-20 00:08:00,,0817.0,5.01,0.00,22.0,20.5,00.0,31.0,23.8,08.9,0000.0,0004.86,0002.02,0001.17
2023-02-20 00:09:00,,0817.1,4.99,0.00,22.0,20.4,00.0,31.0,23.7,08.9,0000.0,0004.90,0002.06,0001.19
2023-02-20 00:10:00,,0816.9,4.99,0.00,22.0,20.4,00.0,31.0,23.7,09.0,0000.0,0004.69,0002.08,0001.20
2023-02-20 00:11:00,,0817.0,5.00,0.00,22.0,20.4,00.0,31.0,23.7,09.3,0000.0,0004.46,0002.04,0001.18
2023-02-20 00:12:00,,0816.8,5.00,0.00,22.0,20.3,00.0,30.9,23.7,08.9,0000.0,0004.46,0002.01,0001.16
2023-02-20 00:13:00,,0816.9,5.00,0.00,22.0,20.3,00.0,30.9,23.6,08.7,0000.0,0004.30,0002.01,0001.16
2023-02-20 00:14:00,,0816.8,5.00,0.00,21.9,20.3,00.0,30.9,23.6,08.7,0000.0,0004.05,0002.01,0001.16
2023-02-20 00:15:00,,0816.6,4.99,0.00,21.9,20.2,00.0,30.9,23.5,08.7,0000.0,0004.15,0002.00,0001.16
2023-02-20 00:16:00,,0816.7,5.00,0.00,21.9,20.1,00.0,30.9,23.5,08.8,0000.0,0004.27,0001.99,0001.15
2023-02-20 00:17:00,,0816.8,5.01,0.00,21.8,20.0,00.0,30.9,23.5,08.9,0000.0,0004.17,0001.95,0001.16
2023-02-20 00:18:00,,0816.8,5.01,0.00,21.8,19.9,00.0,30.9,23.4,08.8,0000.0,0004.11,0001.93,0001.16
2023-02-20 00:19:00,,0816.6,4.99,0.00,21.8,19.9,00.0,30.8,23.3,08.8,0000.0,0004.08,0001.93,0001.17
2023-02-20 00:20:00,,0816.9,5.00,0.00,21.7,19.8,00.0,30.8,23.4,08.9,0000.0,0004.10,0001.94,0001.18
2023-02-20 00:21:00,,0816.9,5.00,0.00,21.7,19.8,00.0,30.8,23.4,08.9,0000.0,0003.92,0001.88,0001.18
2023-02-20 00:22:00,,0817.1,4.99,0.00,21.7,19.8,00.0,30.8,23.3,09.0,0000.0,0004.11,0001.88,0001.18
2023-02-20 00:23:00,,0816.7,4.99,0.00,21.7,19.8,00.0,30.8,23.3,08.8,0000.0,0004.30,0001.89,0001.19
2023-02-20 00:24:00,,0816.5,5.00,0.00,21.7,20.3,00.0,30.7,23.4,08.8,0000.0,0004.20,0001.87,0001.19
2023-02-20 00:25:00,,0816.4,4.98,0.00,21.8,21.5,00.0,30.6,23.7,08.9,0000.0,0005.01,0001.85,0001.19
2023-02-20 00:26:00,,0816.4,5.00,0.00,21.9,22.5,00.0,30.6,24.0,08.9,0000.0,0005.99,0001.87,0001.19
2023-02-20 00:27:00,,0816.5,5.01,0.00,22.0,22.3,00.0,30.7,24.0,08.7,0000.0,0005.98,0001.86,0001.20
2023-02-20 00:28:00,,0816.5,4.98,0.00,22.0,21.8,00.0,30.8,23.9,08.6,0000.0,0006.13,0001.88,0001.21
2023-02-20 00:29:00,,0816.7,5.02,0.00,22.0,21.3,00.0,30.8,23.7,08.6,0000.0,0006.22,0001.90,0001.20
2023-02-20 00:30:00,,0816.5,5.02,0.00,22.0,21.0,00.0,30.8,23.7,08.6,0000.0,0006.36,0001.93,0001.20
2023-02-20 00:31:00,,0816.5,5.01,0.00,22.0,20.8,00.0,30.8,23.7,08.6,0000.0,0006.55,0001.97,0001.20
2023-02-20 00:32:00,,0816.8,4.98,0.00,22.0,20.7,00.0,30.8,23.7,08.8,0000.0,0006.56,0001.98,0001.20
2023-02-20 00:33:00,,0816.6,5.00,0.00,22.0,20.6,00.0,30.9,23.8,09.0,0000.0,0006.45,0001.99,0001.20
2023-02-20 00:34:00,,0816.5,5.01,0.00,22.0,20.6,00.0,30.8,23.7,08.9,0000.0,0006.27,0002.05,0001.20
2023-02-20 00:35:00,,0816.5,5.00,0.00,22.0,20.6,00.0,30.9,23.7,09.0,0000.0,0006.34,0002.08,0001.20
2023-02-20 00:36:00,,0816.5,4.97,0.00,22.0,20.5,00.0,30.9,23.7,09.2,0000.0,0005.94,0002.14,0001.20
2023-02-20 00:37:00,,0816.6,4.97,0.00,22.0,20.5,00.0,30.9,23.7,09.1,0000.0,0004.48,0002.11,0001.21
2023-02-20 00:38:00,,0816.5,5.00,0.00,22.0,20.5,00.0,30.9,23.7,09.2,0000.0,0004.40,0002.13,0001.20
2023-02-20 00:39:00,,0816.5,5.00,0.00,22.0,20.5,00.0,30.9,23.7,09.2,0000.0,0004.68,0002.14,0001.19
2023-02-20 00:40:00,,0816.5,4.99,0.00,22.0,20.5,00.0,30.9,23.7,09.0,0000.0,0005.43,0002.16,0001.19
2023-02-20 00:41:00,,0816.6,5.00,0.00,21.9,20.4,00.0,30.9,23.7,08.9,0000.0,0005.72,0002.14,0001.19
2023-02-20 00:42:00,,0816.6,4.99,0.00,21.9,20.3,00.0,30.9,23.7,09.0,0000.0,0006.13,0002.11,0001.18
2023-02-20 00:43:00,,0816.6,5.01,0.00,21.9,20.3,00.0,30.9,23.6,08.8,0000.0,0006.45,0002.20,0001.20
2023-02-20 00:44:00,,0816.9,4.97,0.00,21.9,20.1,00.0,30.9,23.5,09.1,0000.0,0006.68,0002.24,0001.20
2023-02-20 00:45:00,,0816.9,5.00,0.00,21.8,20.1,00.0,30.8,23.5,09.0,0000.0,0007.24,0002.17,0001.20
2023-02-20 00:46:00,,0817.0,5.01,0.00,21.8,20.0,00.0,30.8,23.4,08.7,0000.0,0007.39,0002.15,0001.21
2023-02-20 00:47:00,,0816.8,5.00,0.00,21.8,19.9,00.0,30.8,23.3,09.1,0000.0,0007.32,0002.12,0001.22
2023-02-20 00:48:00,,0816.8,5.00,0.00,21.7,19.8,00.0,30.8,23.3,08.9,0000.0,0007.65,0002.12,0001.22
2023-02-20 00:49:00,,0816.9,5.01,0.00,21.7,20.3,00.0,30.7,23.4,08.7,0000.0,0007.83,0002.06,0001.21
2023-02-20 00:50:00,,0816.8,4.99,0.00,21.8,21.6,00.0,30.7,23.7,08.8,0000.0,0007.71,0002.10,0001.21
2023-02-20 00:51:00,,0816.4,5.04,0.00,22.0,22.8,00.0,30.7,24.1,09.0,0000.0,0007.17,0002.09,0001.24
2023-02-20 00:52:00,,0816.4,5.00,0.00,22.1,22.7,00.0,30.7,24.1,09.2,0000.0,0006.88,0002.14,0001.26
2023-02-20 00:53:00,,0816.7,4.98,0.00,22.1,22.1,00.0,30.8,24.0,09.2,0000.0,0006.70,0002.20,0001.26
2023-02-20 00:54:00,,0816.8,4.99,0.00,22.1,21.6,00.0,30.8,23.9,09.2,0000.0,0006.88,0002.16,0001.26
2023-02-20 00:55:00,,0817.0,5.00,0.00,22.1,21.3,00.0,30.9,23.8,09.2,0000.0,0006.63,0002.10,0001.27
2023-02-20 00:56:00,,0817.0,4.98,0.00,22.1,21.0,00.0,30.9,23.8,09.2,0000.0,0006.13,0002.13,0001.26
2023-02-20 00:57:00,,0817.0,4.99,0.00,22.0,20.7,00.0,30.9,23.7,09.2,0000.0,0005.82,0002.13,0001.25
2023-02-20 00:58:00,,0816.8,5.00,0.00,22.0,20.5,00.0,30.9,23.6,08.9,0000.0,0005.83,0002.12,0001.24
2023-02-20 00:59:00,,0816.9,4.99,0.00,22.0,20.3,00.0,30.9,23.6,08.8,0000.0,0005.70,0002.17,0001.26
